[[{"header":{"parameterUnit":"m.s-1","parameterCategory":1,"la1":30.2992,"la2":30.254,"lo1":-89.0895,"lo2":-89.0443,"dy":0.0025,"dx":0.0025,"nx":19,"ny":19,"refTime":"2026-04-02T09:00:00:Z","depth":0,"parameterNumber":2,"parameterNumberName":"U-component_of_WINDS"},"data":[0,0,0,-5.6483,-5.6487,-5.6621,-5.6621,-5.6805,-5.6807,0,0,0,0,0,0,0,0,0,0,0,-5.6454,-5.6455,-5.6483,-5.6487,-5.6621,-5.6621,-5.6805,-5.6807,0,0,0,0,0,0,0,0,0,0,0,-5.6453,-5.6455,-5.6457,-5.6487,-5.6621,-5.6621,-5.6805,-5.6698,0,0,0,0,0,0,0,0,0,0,-5.6566,-5.6548,-5.6454,-5.6457,-5.6488,-5.662,-5.6621,-5.6693,-5.6705,-5.6751,0,-5.6796,0,-5.6805,-5.682,-5.6821,0,0,0,-5.6479,-5.6538,-5.6566,-5.6457,-5.649,-5.662,-5.6558,-5.6699,-5.6713,-5.6767,-5.6799,-5.6805,-5.6808,-5.6822,-5.6823,-5.7121,-5.7122,0,0,-5.6471,-5.6482,-5.6557,-5.6576,-5.6558,-5.6554,-5.6562,-5.6707,-5.6742,-5.6799,-5.6809,-5.6811,-5.6823,-5.6825,-5.7119,-5.7121,0,0,0,-5.6456,-5.6477,-5.6501,-5.6568,-5.6592,-5.6558,-5.6568,-5.6735,-5.6742,-5.6811,-5.6813,-5.6824,-5.6827,-5.7117,-5.712,-5.7218,0,0,0,-5.6451,-5.6468,-5.6498,-5.6506,-5.6589,-5.6666,-5.6593,-5.6732,-5.6748,-5.6812,-5.6824,-5.6829,-5.7115,-5.7119,-5.7211,-5.726,0,0,0,-5.6441,-5.6467,-5.649,-5.6507,-5.6565,-5.6663,-5.6678,-5.6736,-5.675,-5.6821,-5.6829,-5.7114,-5.7118,-5.7205,-5.725,-5.7341,0,0,0,-5.6434,-5.6574,-5.6492,-5.665,-5.6564,-5.6725,-5.6677,-5.6795,-5.6868,-5.6825,-5.7115,-5.712,-5.7203,-5.7244,-5.7334,-5.7417,-5.7453,0,0,-5.6616,-5.6596,-5.6688,-5.6619,-5.6797,-5.6703,-5.6895,-5.695,-5.6945,-5.7062,-5.7069,-5.7213,-5.7249,-5.7339,-5.7659,-5.7688,0,0,0,-5.675,-5.6816,-5.6861,-5.6932,-5.698,-5.7024,-5.705,-5.7071,-5.717,-5.7009,-5.7272,-5.7293,-5.7345,-5.7383,-5.7408,-5.7451,-5.7139,-5.7139,-5.7138,-5.702,-5.7011,-5.7162,-5.7169,-5.7239,-5.7265,-5.732,-5.7352,-5.732,-5.7383,-5.7415,-5.7611,-5.7657,-5.7675,-5.772,-5.7461,-5.7462,-5.7462,-5.7462,-5.7284,-5.7374,-5.7333,-5.7464,-5.7452,-5.7561,-5.7593,-5.7567,-5.7666,-5.7585,-5.763,-5.7539,-5.7707,-5.7746,-5.747,-5.7468,-5.7467,-5.7467,-5.7466,-5.7457,-5.7498,-5.7524,-5.7628,-5.7709,-5.7711,-5.7809,-5.7795,-5.7783,-5.7828,-5.786,-5.7858,-5.7852,-5.7846,-5.7846,-5.7847,-5.7848,-5.7848,-5.7848,-5.7624,-5.765,-5.7735,-5.7801,-5.7846,-5.7903,-5.7934,-5.7977,-5.8021,-5.8003,-5.8003,-5.7963,-5.7728,-5.7667,-5.7859,-5.7857,-5.7856,-5.7855,-5.7854,-5.7887,-5.7827,-5.7958,-5.8004,-5.808,-5.8161,-5.8145,-5.8234,-5.8268,-5.8316,-5.8269,-5.8099,-5.8076,-5.8056,-5.8005,-5.8273,-5.8273,-5.8273,-5.8273,-5.803,-5.802,-5.8151,-5.8225,-5.8296,-5.8295,-5.8442,-5.8469,-5.8486,-5.8506,-5.8467,-5.84,-5.8381,-5.8368,-5.8342,-5.8294,-5.8629,-5.863,-5.863,-5.819,-5.8187,-5.8314,-5.8334,-5.8394,-5.8444,-5.8582,-5.8667,-5.8674,-5.8644,-5.8521,-5.8506,-5.8398,-5.8364,-5.8325,-5.8285,-5.8196,0,0]},{"header":{"parameterUnit":"m.s-1","parameterCategory":1,"la1":30.2992,"la2":30.254,"lo1":-89.0895,"lo2":-89.0443,"dy":0.0025,"dx":0.0025,"nx":19,"ny":19,"refTime":"2026-04-02T09:00:00:Z","depth":0,"parameterNumber":3,"parameterNumberName":"V-component_of_WINDS"},"data":[0,0,0,1.8361,1.8361,1.8369,1.8369,1.8383,1.8383,0,0,0,0,0,0,0,0,0,0,0,1.8362,1.8362,1.8361,1.8361,1.8369,1.8369,1.8383,1.8383,0,0,0,0,0,0,0,0,0,0,0,1.8362,1.8362,1.8363,1.8361,1.8369,1.8369,1.8383,1.8375,0,0,0,0,0,0,0,0,0,0,1.8367,1.8372,1.8362,1.8363,1.8361,1.8369,1.8369,1.8375,1.8376,1.8382,0,1.839,0,1.8387,1.8385,1.8385,0,0,0,1.8358,1.8371,1.837,1.8363,1.8361,1.8369,1.8364,1.8375,1.8376,1.8383,1.839,1.839,1.8387,1.8385,1.8385,1.8438,1.8438,0,0,1.8357,1.8365,1.837,1.8371,1.8372,1.8364,1.8364,1.8376,1.8383,1.839,1.839,1.8387,1.8385,1.8385,1.8438,1.8438,0,0,0,1.8358,1.8365,1.8363,1.8371,1.8372,1.8364,1.8365,1.8382,1.8381,1.8391,1.8388,1.8385,1.8385,1.8437,1.8438,1.8467,0,0,0,1.8358,1.8365,1.8363,1.8368,1.8372,1.8377,1.8371,1.838,1.8381,1.8388,1.8385,1.8385,1.8437,1.8438,1.8466,1.8479,0,0,0,1.836,1.8366,1.8368,1.8369,1.8373,1.8377,1.8377,1.838,1.838,1.8385,1.8386,1.8436,1.8437,1.8464,1.8477,1.8497,0,0,0,1.8365,1.8392,1.8369,1.8398,1.8373,1.8396,1.8376,1.8392,1.84,1.8385,1.8437,1.8438,1.8463,1.8475,1.8496,1.8517,1.8526,0,0,1.8403,1.8397,1.8414,1.8393,1.8423,1.8394,1.8428,1.8426,1.8417,1.8432,1.8433,1.8466,1.8477,1.8497,1.8575,1.8582,0,0,0,1.8428,1.8441,1.8447,1.8456,1.8458,1.846,1.8453,1.8453,1.8465,1.8427,1.8479,1.8484,1.8496,1.8506,1.8512,1.8522,1.8442,1.8442,1.8442,1.8493,1.8484,1.8513,1.8506,1.8515,1.851,1.8517,1.8516,1.8501,1.8514,1.8518,1.8566,1.8578,1.8583,1.8593,1.8528,1.8528,1.8528,1.8528,1.8549,1.8566,1.8551,1.8573,1.8564,1.8582,1.8579,1.8569,1.8584,1.8562,1.8571,1.8548,1.8591,1.86,1.853,1.853,1.8529,1.8529,1.8529,1.859,1.8597,1.8599,1.8615,1.8627,1.8619,1.8636,1.8626,1.8617,1.8627,1.8631,1.8631,1.863,1.863,1.863,1.863,1.863,1.863,1.863,1.8633,1.8634,1.865,1.8658,1.8664,1.8672,1.8669,1.8675,1.8679,1.8671,1.8671,1.8657,1.8597,1.8583,1.8633,1.8633,1.8632,1.8632,1.8632,1.8693,1.8679,1.8704,1.8712,1.8721,1.8736,1.8724,1.8738,1.8742,1.8751,1.8736,1.8693,1.8685,1.868,1.8668,1.8737,1.8737,1.8737,1.8737,1.8729,1.8725,1.875,1.8763,1.8774,1.8768,1.8798,1.8798,1.8794,1.8796,1.8785,1.8769,1.8764,1.8758,1.8751,1.874,1.8826,1.8826,1.8826,1.8766,1.8764,1.8791,1.879,1.8798,1.8805,1.8833,1.8848,1.8841,1.8829,1.8798,1.8794,1.8767,1.8759,1.8745,1.8735,1.8714,0,0]}]]